This is the latest recevied weather packets stored in our database for station/object W1HVD. If no packets are shown the sender has not sent any weather packets the latest 10 day(s).
| Time | Temp. | Humidity | Pressure | Rain* | Wind** | Luminosity | Snow |
|---|---|---|---|---|---|---|---|
| 1777743687 | 14.44° C | 53% | 1011.4 hPa | 0 mm | - | 197 W/m² | - |
| 1777743385 | 14.44° C | 51% | 1011.5 hPa | 0 mm | - | 240 W/m² | - |
| 1777743082 | 13.89° C | 51% | 1011.5 hPa | 0 mm | - | 280 W/m² | - |
| 1777742779 | 14.44° C | 51% | 1011.4 hPa | 0 mm | - | 246 W/m² | - |
| 1777742476 | 13.89° C | 50% | 1011.6 hPa | 0 mm | - | 182 W/m² | - |
| 1777742171 | 13.89° C | 50% | 1011.5 hPa | 0 mm | - | 233 W/m² | - |
| 1777741868 | 13.89° C | 52% | 1011.6 hPa | 0 mm | - | 149 W/m² | - |
| 1777741566 | 13.89° C | 52% | 1011.4 hPa | 0 mm | - | 133 W/m² | - |
| 1777741262 | 13.89° C | 58% | 1011.2 hPa | 0 mm | - | 173 W/m² | - |
| 1777740959 | 13.89° C | 64% | 1011.3 hPa | 0 mm | - | 129 W/m² | - |
| 1777740656 | 14.44° C | 63% | 1011.5 hPa | 0 mm | - | 114 W/m² | - |
| 1777740352 | 15° C | 65% | 1011.2 hPa | 0 mm | - | 175 W/m² | - |
| 1777740049 | 15° C | 64% | 1011.1 hPa | 0 mm | - | 179 W/m² | - |
| 1777739745 | 15° C | 60% | 1011.5 hPa | 0 mm | - | 229 W/m² | - |
| 1777739442 | 15° C | 59% | 1011.4 hPa | 0 mm | - | 225 W/m² | - |
| 1777739139 | 15° C | 62% | 1011.5 hPa | 0 mm | - | 303 W/m² | - |
| 1777738836 | 15° C | 62% | 1011.5 hPa | 0 mm | - | 246 W/m² | - |
| 1777738533 | 15.56° C | 64% | 1011.3 hPa | 0 mm | - | 191 W/m² | - |
| 1777738231 | 16.11° C | 59% | 1011.3 hPa | 0 mm | - | 302 W/m² | - |
| 1777737928 | 15.56° C | 56% | 1011.3 hPa | 0 mm | - | 243 W/m² | - |
| 1777737627 | 15° C | 58% | 1011.4 hPa | 0 mm | - | 507 W/m² | - |
| 1777737325 | 15° C | 57% | 1011.4 hPa | 0 mm | - | 172 W/m² | - |
| 1777737021 | 15.56° C | 57% | 1011.7 hPa | 0 mm | - | 206 W/m² | - |
| 1777736717 | 15° C | 57% | 1011.6 hPa | 0 mm | - | 346 W/m² | - |
| 1777736078 | 15.56° C | 57% | 1012.1 hPa | 0 mm | - | 213 W/m² | - |
* Rain latest hour (hover to see other rain measurements)
** Current wind speed in m/s (hover to see current wind gust speed)